Location: Unnamed
(51.5169°N, 0.1311°W)
Time: 21:34:53
(UTC+01:00)

Tiros 1 - Pass Details

Date: 12 August 2024
Orbit: 623 x 655 km, 48.4° (Epoch: 16 September)

Event Time Altitude Azimuth Distance (km) Brightness Sun altitude
Rises 05:13:59 0° 206° (SSW) 2,963 - -4.7°
Exits shadow 05:14:08 - 206° (SSW) 2,913 10.0 -4.6°
Reaches altitude 10° 05:16:51 10° 189° (S) 2,058 9.4 -4.3°
Maximum altitude 05:20:13 20° 144° (SE) 1,530 9.2 -3.8°
Drops below altitude 10° 05:23:37 10° 99° (E) 2,067 10.7 -3.4°
Sets 05:26:30 0° 82° (E) 2,981 12.2 -3.0°
